| time (UTC) | temp C | wind direction | speed KPH | gust KPH | rain 1hr cm | rain 24hr cm | rain mn cm | humidity % | barometer mb |
| 20260902234517 | 18 | 141 | 0.0 | 3.2 | 0.00 | 0.05 | 0.00 | 82 | 1020.7 |
| 20260902233014 | 18 | 46 | 0.0 | 0.0 | 0.00 | 0.05 | 0.00 | 83 | 1021.0 |
| 20260902231515 | 19 | 126 | 0.0 | 1.6 | 0.00 | 0.05 | 0.00 | 82 | 1021.1 |
| 20260902230010 | 19 | 138 | 0.0 | 1.6 | 0.00 | 0.20 | 0.00 | 82 | 1021.5 |
| 20260902224509 | 20 | 134 | 0.0 | 3.2 | 0.00 | 0.20 | 0.00 | 82 | 1021.7 |
| 20260902223058 | 20 | 81 | 0.0 | 1.6 | 0.00 | 0.20 | 0.00 | 81 | 1022.0 |
| 20260902221551 | 20 | 71 | 0.0 | 1.6 | 0.00 | 0.20 | 0.00 | 80 | 1022.1 |
| 20260902220033 | 20 | 87 | 0.0 | 1.6 | 0.00 | 0.20 | 0.00 | 80 | 1022.0 |
| 20260902214533 | 20 | 150 | 0.0 | 4.8 | 0.00 | 0.20 | 0.00 | 78 | 1021.9 |
| 20260902213032 | 20 | 205 | 1.6 | 6.4 | 0.00 | 0.20 | 0.00 | 77 | 1021.7 |
| 20260902211530 | 20 | 282 | 0.0 | 8.0 | 0.00 | 0.20 | 0.00 | 78 | 1021.3 |
| 20260902210030 | 21 | 150 | 0.0 | 9.7 | 0.00 | 0.20 | 0.00 | 77 | 1021.4 |
| 20260902204529 | 21 | 169 | 0.0 | 6.4 | 0.00 | 0.20 | 0.00 | 77 | 1021.2 |
| 20260902203028 | 21 | 89 | 0.0 | 4.8 | 0.00 | 0.20 | 0.00 | 79 | 1021.4 |
| 20260902201529 | 21 | 101 | 0.0 | 8.0 | 0.00 | 0.20 | 0.00 | 78 | 1021.3 |
| 20260902200010 | 21 | 119 | 0.0 | 4.8 | 0.00 | 0.20 | 0.00 | 77 | 1021.5 |
| 20260902194516 | 21 | 115 | 0.0 | 1.6 | 0.00 | 0.20 | 0.00 | 76 | 1022.0 |
| 20260902193057 | 21 | 70 | 0.0 | 3.2 | 0.00 | 0.20 | 0.00 | 75 | 1022.3 |
| 20260902191551 | 21 | 96 | 0.0 | 3.2 | 0.00 | 0.20 | 0.00 | 73 | 1022.1 |
| 20260902190034 | 22 | 65 | 0.0 | 8.0 | 0.00 | 0.20 | 0.00 | 71 | 1022.0 |
| 20260902184533 | 22 | 358 | 0.0 | 8.0 | 0.00 | 0.20 | 0.00 | 70 | 1021.7 |
| 20260902183024 | 22 | 53 | 0.0 | 12.9 | 0.00 | 0.20 | 0.00 | 66 | 1021.9 |
| 20260902181522 | 22 | 103 | 0.0 | 8.0 | 0.00 | 0.20 | 0.00 | 68 | 1022.2 |
| 20260902180022 | 23 | 78 | 0.0 | 4.8 | 0.00 | 0.20 | 0.00 | 68 | 1022.4 |
| 20260902174521 | 22 | 37 | 1.6 | 6.4 | 0.00 | 0.20 | 0.00 | 64 | 1022.5 |
| 20260902173035 | 23 | 111 | 3.2 | 8.0 | 0.00 | 0.20 | 0.00 | 61 | 1022.6 |
| 20260902171518 | 23 | 180 | 0.0 | 6.4 | 0.00 | 0.20 | 0.00 | 67 | 1022.1 |
| 20260902170017 | 22 | 63 | 3.2 | 9.7 | 0.00 | 0.20 | 0.00 | 67 | 1022.1 |
| 20260902164516 | 22 | 131 | 0.0 | 6.4 | 0.00 | 0.20 | 0.00 | 71 | 1022.3 |
| 20260902163015 | 22 | 44 | 3.2 | 8.0 | 0.00 | 0.20 | 0.00 | 69 | 1022.2 |
| 20260902161558 | 22 | 97 | 0.0 | 8.0 | 0.00 | 0.20 | 0.00 | 69 | 1022.4 |
| 20260902160115 | 22 | 89 | 1.6 | 8.0 | 0.00 | 0.20 | 0.00 | 67 | 1022.4 |
| 20260902154547 | 22 | 109 | 1.6 | 8.0 | 0.00 | 0.20 | 0.00 | 69 | 1022.6 |
| 20260902153043 | 22 | 66 | 1.6 | 6.4 | 0.00 | 0.20 | 0.00 | 68 | 1022.6 |
| 20260902151540 | 22 | 71 | 0.0 | 6.4 | 0.00 | 0.20 | 0.00 | 70 | 1022.7 |
| 20260902150039 | 22 | 279 | 0.0 | 1.6 | 0.00 | 0.30 | 0.00 | 68 | 1022.7 |
| 20260902144541 | 21 | 307 | 0.0 | 4.8 | 0.00 | 0.30 | 0.00 | 71 | 1022.7 |
| 20260902143043 | 22 | 53 | 0.0 | 6.4 | 0.00 | 0.30 | 0.00 | 71 | 1022.6 |
| 20260902141535 | 21 | 205 | 0.0 | 1.6 | 0.00 | 0.30 | 0.00 | 76 | 1022.5 |
| 20260902140036 | 20 | 66 | 3.2 | 8.0 | 0.00 | 0.46 | 0.00 | 75 | 1022.6 |
| 20260902134527 | 20 | 55 | 0.0 | 4.8 | 0.00 | 0.46 | 0.00 | 80 | 1022.5 |
| 20260902133023 | 19 | 235 | 0.0 | 8.0 | 0.00 | 0.46 | 0.00 | 83 | 1022.3 |
| 20260902131512 | 18 | 75 | 0.0 | 6.4 | 0.00 | 0.46 | 0.00 | 84 | 1022.2 |
| 20260902130006 | 18 | 63 | 0.0 | 1.6 | 0.00 | 0.48 | 0.00 | 85 | 1022.1 |
| 20260902124505 | 17 | 267 | 0.0 | 1.6 | 0.00 | 0.48 | 0.00 | 88 | 1022.0 |
| 20260902123003 | 17 | 27 | 0.0 | 1.6 | 0.00 | 0.48 | 0.00 | 88 | 1022.2 |
| 20260902121603 | 17 | 94 | 0.0 | 3.2 | 0.00 | 0.48 | 0.00 | 89 | 1022.3 |
| 20260902120058 | 17 | 98 | 0.0 | 9.7 | 0.00 | 0.48 | 0.00 | 89 | 1022.3 |
| 20260902114559 | 17 | 140 | 0.0 | 4.8 | 0.00 | 0.48 | 0.00 | 90 | 1022.4 |
| 20260902113054 | 16 | 306 | 0.0 | 0.0 | 0.00 | 0.48 | 0.00 | 91 | 1022.5 |
| 20260902111541 | 16 | 146 | 0.0 | 1.6 | 0.00 | 0.48 | 0.00 | 92 | 1022.5 |
| 20260902110053 | 16 | 342 | 0.0 | 1.6 | 0.00 | 0.48 | 0.00 | 93 | 1022.3 |
| 20260902104512 | 16 | 197 | 0.0 | 3.2 | 0.00 | 0.48 | 0.00 | 93 | 1022.1 |
| 20260902103011 | 16 | 302 | 0.0 | 3.2 | 0.00 | 0.48 | 0.00 | 93 | 1022.0 |
| 20260902101553 | 16 | 273 | 0.0 | 1.6 | 0.00 | 0.48 | 0.00 | 93 | 1021.9 |
| 20260902100052 | 16 | 328 | 0.0 | 3.2 | 0.00 | 0.51 | 0.00 | 93 | 1021.9 |
| 20260902094541 | 16 | 337 | 0.0 | 1.6 | 0.00 | 0.51 | 0.00 | 93 | 1021.7 |
| 20260902093031 | 16 | 305 | 0.0 | 1.6 | 0.00 | 0.51 | 0.00 | 93 | 1021.6 |
| 20260902091512 | 16 | 309 | 0.0 | 1.6 | 0.00 | 0.51 | 0.00 | 93 | 1021.5 |
| 20260902090012 | 16 | 286 | 0.0 | 1.6 | 0.00 | 0.56 | 0.00 | 94 | 1021.3 |
| 20260902084605 | 16 | 120 | 0.0 | 0.0 | 0.00 | 0.56 | 0.00 | 94 | 1021.3 |
| 20260902083107 | 16 | 120 | 0.0 | 1.6 | 0.00 | 0.56 | 0.00 | 94 | 1021.4 |
| 20260902081557 | 16 | 146 | 0.0 | 3.2 | 0.00 | 0.56 | 0.00 | 94 | 1021.1 |
| 20260902080112 | 16 | 257 | 0.0 | 1.6 | 0.00 | 0.58 | 0.00 | 94 | 1021.2 |
| 20260902074557 | 16 | 291 | 0.0 | 1.6 | 0.00 | 0.58 | 0.00 | 94 | 1021.0 |
| 20260902073055 | 16 | 234 | 0.0 | 0.0 | 0.00 | 0.58 | 0.00 | 94 | 1021.2 |
| 20260902071555 | 16 | 195 | 0.0 | 1.6 | 0.00 | 0.58 | 0.00 | 94 | 1021.0 |
| 20260902070053 | 16 | 238 | 0.0 | 0.0 | 0.00 | 0.61 | 0.00 | 95 | 1021.0 |
| 20260902064536 | 16 | 297 | 0.0 | 1.6 | 0.00 | 0.61 | 0.00 | 95 | 1020.8 |
| 20260902063036 | 16 | 290 | 0.0 | 1.6 | 0.00 | 0.61 | 0.00 | 95 | 1020.9 |
| 20260902061521 | 16 | 101 | 0.0 | 3.2 | 0.00 | 0.61 | 0.00 | 95 | 1020.7 |
| 20260902060018 | 16 | 276 | 0.0 | 0.0 | 0.00 | 0.61 | 0.00 | 95 | 1020.7 |
| 20260902054558 | 16 | 13 | 0.0 | 0.0 | 0.00 | 0.61 | 0.00 | 95 | 1021.0 |
| 20260902053058 | 16 | 15 | 0.0 | 1.6 | 0.00 | 0.61 | 0.00 | 95 | 1021.0 |
| 20260902051539 | 16 | 271 | 0.0 | 0.0 | 0.00 | 0.61 | 0.00 | 95 | 1020.9 |
| 20260902050037 | 16 | 271 | 0.0 | 0.0 | 0.00 | 0.61 | 0.00 | 95 | 1020.7 |
| 20260902044520 | 16 | 274 | 0.0 | 1.6 | 0.00 | 0.61 | 0.00 | 95 | 1020.6 |
| 20260902043019 | 16 | 274 | 0.0 | 0.0 | 0.00 | 0.61 | 0.00 | 95 | 1020.6 |
| 20260902041600 | 16 | 5 | 0.0 | 0.0 | 0.00 | 0.61 | 0.00 | 95 | 1020.6 |
| 20260902034540 | 16 | 315 | 0.0 | 0.0 | 0.00 | 0.61 | 0.61 | 95 | 1020.3 |
| 20260902033047 | 16 | 160 | 0.0 | 0.0 | 0.00 | 0.61 | 0.61 | 94 | 1020.0 |
| 20260902031521 | 16 | 143 | 0.0 | 0.0 | 0.00 | 0.61 | 0.61 | 94 | 1020.4 |
| 20260902030020 | 16 | 91 | 0.0 | 4.8 | 0.00 | 0.61 | 0.61 | 94 | 1020.3 |
| 20260902024601 | 16 | 96 | 0.0 | 1.6 | 0.00 | 0.61 | 0.61 | 94 | 1020.1 |
| 20260902023102 | 16 | 78 | 0.0 | 3.2 | 0.00 | 0.61 | 0.61 | 94 | 1019.9 |
| 20260902021547 | 16 | 302 | 0.0 | 4.8 | 0.00 | 0.61 | 0.61 | 94 | 1019.9 |
| 20260902020047 | 16 | 342 | 0.0 | 1.6 | 0.00 | 0.61 | 0.61 | 95 | 1019.7 |
| 20260902014545 | 16 | 281 | 0.0 | 1.6 | 0.00 | 0.61 | 0.61 | 94 | 1019.5 |
| 20260902013044 | 16 | 131 | 0.0 | 3.2 | 0.00 | 0.61 | 0.61 | 94 | 1019.3 |
| 20260902011543 | 16 | 119 | 0.0 | 6.4 | 0.00 | 0.61 | 0.61 | 94 | 1018.8 |
| 20260902010047 | 16 | 131 | 0.0 | 6.4 | 0.00 | 0.61 | 0.61 | 94 | 1019.1 |
| 20260902004542 | 16 | 321 | 1.6 | 8.0 | 0.00 | 0.61 | 0.61 | 94 | 1018.8 |
| 20260902003042 | 16 | 116 | 0.0 | 6.4 | 0.00 | 0.61 | 0.61 | 94 | 1018.8 |
| 20260902001526 | 16 | 120 | 1.6 | 8.0 | 0.05 | 0.61 | 0.61 | 94 | 1018.7 |
| 20260902000027 | 16 | 295 | 0.0 | 1.6 | 0.05 | 0.61 | 0.61 | 94 | 1018.6 |